TimeCDT,TemperatureF,Dew PointF,Humidity,Sea Level PressureIn,VisibilityMPH,Wind Direction,Wind SpeedMPH,Gust SpeedMPH,PrecipitationIn,Events,Conditions,WindDirDegrees,DateUTC
12:15 AM,61.7,57.9,87,29.65,3.0,SW,11.5,-,0.04,Rain,Light Rain,230,2013-05-20 05:15:00
12:35 AM,61.7,58.1,88,29.63,10.0,SSE,5.8,-,0.04,,Overcast,160,2013-05-20 05:35:00
12:55 AM,61.2,58.1,90,29.60,10.0,SE,9.2,-,0.04,,Overcast,140,2013-05-20 05:55:00
1:15 AM,60.8,57.7,90,29.59,10.0,SE,9.2,-,N/A,,Scattered Clouds,130,2013-05-20 06:15:00
1:35 AM,60.4,57.6,90,29.58,10.0,SE,10.4,-,N/A,,Clear,140,2013-05-20 06:35:00
1:55 AM,60.3,57.2,90,29.55,10.0,ESE,12.7,-,N/A,,Clear,120,2013-05-20 06:55:00
2:15 AM,60.6,57.2,88,29.56,10.0,SSE,11.5,-,N/A,,Clear,150,2013-05-20 07:15:00
2:35 AM,60.3,57.2,90,29.56,10.0,SSE,11.5,-,N/A,,Clear,150,2013-05-20 07:35:00
2:55 AM,60.1,57.2,90,29.56,10.0,South,12.7,-,N/A,,Clear,180,2013-05-20 07:55:00
3:15 AM,59.9,57.2,91,29.55,10.0,South,12.7,-,N/A,,Clear,170,2013-05-20 08:15:00
3:35 AM,60.1,57.0,90,29.56,10.0,South,10.4,-,N/A,,Clear,180,2013-05-20 08:35:00
3:55 AM,60.1,56.8,89,29.55,10.0,South,9.2,-,N/A,,Clear,180,2013-05-20 08:55:00
4:15 AM,59.9,56.8,90,29.55,10.0,South,13.8,-,N/A,,Clear,190,2013-05-20 09:15:00
4:35 AM,59.9,56.5,88,29.55,10.0,SSW,12.7,-,N/A,,Clear,200,2013-05-20 09:35:00
5:35 AM,59.4,55.8,88,29.58,10.0,South,11.5,-,N/A,,Clear,190,2013-05-20 10:35:00
6:15 AM,59.4,55.4,87,29.59,10.0,South,13.8,-,N/A,,Clear,180,2013-05-20 11:15:00
6:35 AM,59.9,54.9,83,29.59,10.0,South,12.7,-,N/A,,Clear,190,2013-05-20 11:35:00
6:55 AM,60.4,54.7,81,29.58,10.0,SSW,12.7,-,N/A,,Clear,200,2013-05-20 11:55:00
7:15 AM,61.2,55.4,81,29.58,10.0,SSW,16.1,19.6,N/A,,Clear,200,2013-05-20 12:15:00
7:35 AM,61.9,55.6,80,29.60,10.0,SSW,18.4,-,N/A,,Clear,200,2013-05-20 12:35:00
7:55 AM,62.6,56.3,80,29.61,10.0,SSW,19.6,-,N/A,,Clear,200,2013-05-20 12:55:00
8:15 AM,63.1,56.3,78,29.61,10.0,SSW,20.7,24.2,N/A,,Clear,200,2013-05-20 13:15:00
8:35 AM,63.5,55.9,76,29.62,10.0,SW,18.4,23.0,N/A,,Scattered Clouds,220,2013-05-20 13:35:00
8:55 AM,64.2,56.8,77,29.62,10.0,SSW,17.3,-,N/A,,Scattered Clouds,210,2013-05-20 13:55:00
9:15 AM,64.8,56.7,75,29.62,10.0,SW,21.9,26.5,N/A,,Mostly Cloudy,220,2013-05-20 14:15:00
9:35 AM,64.8,57.0,76,29.61,10.0,SW,23.0,26.5,N/A,,Mostly Cloudy,220,2013-05-20 14:35:00
9:55 AM,65.8,58.3,77,29.61,10.0,SSW,24.2,28.8,N/A,,Mostly Cloudy,210,2013-05-20 14:55:00
10:15 AM,65.3,57.0,75,29.62,10.0,SW,23.0,31.1,N/A,,Overcast,220,2013-05-20 15:15:00
10:35 AM,65.3,57.2,75,29.64,10.0,SW,24.2,32.2,N/A,,Overcast,230,2013-05-20 15:35:00
10:55 AM,66.2,58.3,76,29.64,10.0,SW,26.5,29.9,N/A,,Overcast,220,2013-05-20 15:55:00
11:35 AM,67.1,58.5,74,29.65,10.0,SW,23.0,26.5,N/A,,Mostly Cloudy,220,2013-05-20 16:35:00
11:55 AM,68.2,59.0,72,29.65,10.0,SW,23.0,27.6,N/A,,Mostly Cloudy,220,2013-05-20 16:55:00
12:15 PM,68.9,58.5,69,29.66,10.0,SW,19.6,25.3,N/A,,Mostly Cloudy,220,2013-05-20 17:15:00
1:15 PM,72.0,58.1,62,29.67,10.0,SW,19.6,26.5,N/A,,Mostly Cloudy,220,2013-05-20 18:15:00
1:35 PM,72.7,58.1,60,29.67,10.0,SW,19.6,24.2,N/A,,Scattered Clouds,230,2013-05-20 18:35:00
2:15 PM,73.6,57.2,56,29.66,10.0,SSW,19.6,-,N/A,,Scattered Clouds,210,2013-05-20 19:15:00
2:41 PM,73.4,57.2,57,29.66,10.0,SSW,17.3,23.0,N/A,,Scattered Clouds,200,2013-05-20 19:41:00
3:15 PM,74.1,57.7,56,29.66,10.0,SW,20.7,26.5,N/A,,Mostly Cloudy,220,2013-05-20 20:15:00
4:35 PM,73.6,57.6,57,29.64,10.0,SSW,21.9,-,N/A,,Scattered Clouds,200,2013-05-20 21:35:00
4:55 PM,74.5,56.8,54,29.63,10.0,SW,17.3,-,N/A,,Clear,220,2013-05-20 21:55:00
5:15 PM,74.3,55.0,51,29.62,10.0,SW,15.0,25.3,N/A,,Scattered Clouds,230,2013-05-20 22:15:00
5:55 PM,74.3,56.8,54,29.60,10.0,SW,16.1,20.7,N/A,,Clear,220,2013-05-20 22:55:00
6:15 PM,74.7,57.7,55,29.59,10.0,SSW,12.7,-,N/A,,Scattered Clouds,210,2013-05-20 23:15:00
6:55 PM,74.7,58.3,57,29.56,10.0,SW,12.7,-,N/A,,Clear,230,2013-05-20 23:55:00
7:15 PM,74.5,58.5,57,29.56,10.0,SW,10.4,-,N/A,,Clear,220,2013-05-21 00:15:00
7:55 PM,72.7,60.1,64,29.57,10.0,South,8.1,-,N/A,,Clear,180,2013-05-21 00:55:00
8:15 PM,70.7,59.9,69,29.57,10.0,South,10.4,-,N/A,,Scattered Clouds,170,2013-05-21 01:15:00
8:55 PM,67.1,60.3,79,29.56,10.0,South,6.9,-,N/A,,Clear,190,2013-05-21 01:55:00
9:15 PM,67.1,59.0,75,29.56,10.0,SSW,10.4,-,N/A,,Clear,210,2013-05-21 02:15:00
9:55 PM,65.5,58.1,77,29.56,10.0,SSW,9.2,-,N/A,,Clear,210,2013-05-21 02:55:00
10:15 PM,63.9,57.9,81,29.56,10.0,South,6.9,-,N/A,,Clear,170,2013-05-21 03:15:00
10:35 PM,63.9,57.7,80,29.56,10.0,SSE,6.9,-,N/A,,Clear,150,2013-05-21 03:35:00
10:55 PM,62.8,57.9,84,29.57,10.0,South,6.9,-,N/A,,Clear,180,2013-05-21 03:55:00
11:15 PM,62.2,57.4,84,29.57,10.0,South,5.8,-,N/A,,Scattered Clouds,190,2013-05-21 04:15:00
11:35 PM,62.1,57.2,84,29.57,10.0,South,6.9,-,N/A,,Scattered Clouds,190,2013-05-21 04:35:00
11:55 PM,62.1,56.8,83,29.57,10.0,South,6.9,-,N/A,,Mostly Cloudy,190,2013-05-21 04:55:00